{"data":{"norad_id":64731,"intl_designator":"2025-144H","name":"STARLINK-34552","alt_names":[],"object_type":"PAYLOAD","status":"ACTIVE","operator":null,"country":"US","launch_date":"2025-07-02","launch_site_code":"AFETR","launch_vehicle":null,"mission":null,"orbit_class":"UNKNOWN","rcs_meters":null,"size_class":null,"mass_kg":null,"dimensions":null,"purposes":["comms"],"wikipedia_slug":null,"has_3d_model":false,"image_url":null,"decayed_at":null,"tle_current":{"epoch":"2026-05-24T20:08:20.380992Z","epoch_age_seconds":88951,"freshness":"FRESH","line1":"1 64731U 25144H   26144.83912478  .00006618  00000+0  23527-3 0  9998","line2":"2 64731  53.1596 187.1200 0001460  86.8329 273.2838 15.30213187 51378","mean_motion":15.30213187,"eccentricity":0.000146,"inclination_deg":53.1596,"raan_deg":187.12,"arg_perigee_deg":86.8329,"mean_anomaly_deg":273.2838,"bstar":0.00023527,"rev_number":5137,"period_min":94.104534729774,"perigee_km":474.17511204349,"apogee_km":476.17627935063,"semimajor_km":6853.3126956971,"source":"CELESTRAK","updated_at":"2026-05-25T13:38:20.544730Z"}}}